Regional Weather Roundup
Issued by NWS

Home | Current Version | Previous Version | Text Only | Print | Product List | Glossary On
Versions: 1 2 3 4 5 6 7 8 9 10 11 12 13 14 15 16 17 18 19 20 21 22 23 24 25 26 27 28 29 30 31 32 33 34 35 36 37 38 39 40 41 42 43 44 45 46 47 48 49 50
000
ASUS43 KMKX 172220
RWRWI

WISCONSIN REGIONAL WEATHER ROUNDUP
NATIONAL WEATHER SERVICE MILWAUKEE/SULLIVAN WI
400 PM CST WED JAN 17 2018

NOTE: "FAIR" INDICATES FEW OR NO CLOUDS BELOW 12,000 FEET WITH NO
SIGNIFICANT WEATHER AND/OR OBSTRUCTIONS TO VISIBILITY.

WIZ001-002-006>008-014>016-023>028-172300-
NORTHWEST WISCONSIN

CITY           SKY/WX    TMP DP  RH WIND       PRES   REMARKS
SUPERIOR ARPT  FAIR      27   8  43 SW20G31   29.93F WCI  14
ASHLAND        FAIR      28   6  39 SW14G24   29.90F WCI  17
HAYWARD        FAIR      25   5  42 SW12      29.98F WCI  14
SIREN          FAIR      24   7  49 SW14G20   30.03S WCI  12
CUMBERLAND     FAIR      19   7  58 SW14      30.03F WCI   6
RICE LAKE      FAIR      24   7  49 S12       30.07F WCI  13
CHETEK         FAIR      26   7  45 S9        30.07F WCI  16
LADYSMITH      FAIR      24   8  49 SW13      30.05F WCI  12
EAU CLAIRE     FAIR      25   8  48 SW14G22   30.12R WCI  13
MENOMONIE      FAIR      26   9  50 SW9       30.13R WCI  16
NEW RICHMOND   FAIR      22   8  54 SW12      30.09F WCI  11
OSCEOLA        FAIR      26  10  49 SW12      30.11F WCI  16
$$

WIZ003>005-009-010-017-018-172300-
NORTH CENTRAL WISCONSIN

CITY           SKY/WX    TMP DP  RH WIND       PRES   REMARKS
MANITOWISH WTR FAIR      23   4  44 SW13G18   29.91F WCI  11
ARBOR VITAE    FAIR      26   9  48 SW12G18   29.93F WCI  16
WOODRUFF       FAIR      26   9  48 SW12G18   29.93F WCI  16
RHINELANDER    FAIR      22   8  55 SW16G24   29.97S WCI   8
EAGLE RIVER    FAIR      24   8  52 SW15      29.91F WCI  11
LAND O LAKES   FAIR      27   7  42 SW10G17   29.90F WCI  17
PHILLIPS       FAIR      22   6  48 SW12G21   29.98F WCI  11
TOMAHAWK       FAIR      21   6  51 SW8       30.02S WCI  12
MEDFORD        FAIR      22   6  51 SW8       30.05R WCI  12
MERRILL        FAIR      21   6  52 SW9G16    30.05F WCI  11
$$

WIZ029-030-035-036-043>047-172300-
CENTRAL WISCONSIN

CITY           SKY/WX    TMP DP  RH WIND       PRES   REMARKS
WAUSAU         FAIR      23   5  46 SW13      30.05F WCI  11
MOSINEE        PTCLDY    21   9  58 SW15G21   30.07F WCI   8
MARSHFIELD     FAIR      23   7  50 SW16      30.06F WCI  10
STEVENS POINT  FAIR      23   5  45 SW10G21   30.09F WCI  12
WAUPACA        FAIR      27   6  42 SW15G23   30.12F WCI  15
WAUTOMA        FAIR      25   7  46 SW17G24   30.15F WCI  12
WISC RAPIDS    FAIR      24   5  44 SW20G26   30.12F WCI  10
CAMP DOUGLAS   CLEAR     25   7  46 SW16G22   30.16F WCI  12
$$

WIZ011>013-019>022-031-037>040-048>050-172300-
NORTHEAST WISCONSIN

CITY           SKY/WX    TMP DP  RH WIND       PRES   REMARKS
ANTIGO         FAIR      19   6  55 W20G26    30.01F WCI   4
SHAWANO        FAIR      26   6  43 SW14G21   30.07F WCI  14
OCONTO         FAIR      24   6  47 SW12G22   30.06F WCI  12
STURGEON BAY   FAIR      22  10  60 SW17G23   30.04F WCI   8
GREEN BAY      FAIR      24   7  48 SW12G26   30.10F WCI  13
MANITOWOC      FAIR      23   9  55 SW17G24   30.13F WCI   9
APPLETON       PTCLDY    21   7  53 SW16G23   30.10  WCI   7
CLINTONVILLE   FAIR      25   5  42 W15       30.09F WCI  12
OSHKOSH        FAIR      21   8  57 SW14G25   30.14F WCI   8
$$

WIZ032>034-041-042-053>061-172300-
SOUTHWEST WISCONSIN

CITY           SKY/WX    TMP DP  RH WIND       PRES   REMARKS
LA CROSSE      FAIR      25  10  53 SW23G32   30.20F WCI  10
SPARTA         FAIR      26   8  45 SW8       30.19F WCI  18
VIROQUA        FAIR      21  11  64 SW16      30.20F WCI   7
BOSCOBEL       FAIR      25   7  46 SW10      30.29F WCI  15
PRAIRIE DU CHI FAIR      23   7  51 SW6       30.31S WCI  15
PLATTEVILLE    FAIR      21  11  64 SW14G22   30.30F WCI   8
$$

WIZ056-057-062-063-064-067-068-172300-
SOUTH CENTRAL WISCONSIN

CITY           SKY/WX    TMP DP  RH WIND       PRES   REMARKS
REEDSBURG      FAIR      22   6  49 SW16      30.22F WCI   9
BARABOO/DELLS  FAIR      22   5  46 SW15G23   30.20F WCI   9
LONE ROCK      FAIR      22   8  55 SW14G26   30.28F WCI   9
MINERAL POINT  FAIR      23  10  58 SW18G24   30.26F WCI   9
MADISON        FAIR      20   8  60 SW9G22    30.26F WCI   9
MIDDLETON      FAIR      22   9  55 SW14G21   30.25F WCI  10
WATERTOWN      FAIR      20  10  65 SW14G20   30.25F WCI   7
MONROE         FAIR      19  10  68 SW20G26   30.28F WCI   4
JANESVILLE     PTCLDY    18   9  68 SW14      30.31F WCI   4
$$

WIZ051-052-058>065-066-070>072-172300-
SOUTHEAST WISCONSIN

CITY           SKY/WX    TMP DP  RH WIND       PRES   REMARKS
MILWAUKEE      MOCLDY    22   7  52 W23G35    30.26F WCI   6
WAUKESHA       PTCLDY    18   7  62 W14G25    30.27S WCI   4
MILWAUKEE/TIMM CLEAR     19   7  58 SW22G29   30.25F WCI   3
RACINE         FAIR      20   9  62 SW16G30   30.28F WCI   6
BURLINGTON     FAIR      19   7  59 SW17G23   30.30F WCI   4
KENOSHA        MIX PCPN  19   8  62 SW22G32   30.30F WCI   2
FOND DU LAC    FAIR      22   7  52 SW17G28   30.17F WCI   8
SHEBOYGAN      FAIR      21  10  62 SW23G30   30.16F WCI   5
WEST BEND      FAIR      21   9  58 SW15G24   30.19F WCI   8
JUNEAU         FAIR      20   9  61 SW17G24   30.23F WCI   5
$$

LSZ147-162-172300-
LAKE SUPERIOR

STATION/POSITION TIME  TEMP    WIND        PRES    WAVE
                       AIR SEA DIR/SP/G            HT/PER
                 (UTC) (F)     (DEG/KT/KT) (MB)    (FT/S)
DEVILS ISLAND    2200   29     240/ 31/ 35 1011.3F
SAXON HARBOR     2130   32     200/ 11/ 16 1011.9S
$$

LMZ867-665-643>646-172300-
LAKE MICHIGAN

STATION/POSITION TIME  TEMP    WIND        PRES    WAVE
                       AIR SEA DIR/SP/G            HT/PER
                 (UTC) (F)     (DEG/KT/KT) (MB)    (FT/S)
NORTHPORT PIER   2141   22     200/  6     1016.6F
KEWAUNEE LAKESHO 2154   22     230/ 13/ 19 1018.6F
SHEBOYGAN LAKESH 2200   23     230/ 15/ 19 1022.6F
PORT WASHINGTON  2140   22     240/ 11/ 19 1024.0F
MILWAUKEE LAKESH 2200   22     250/ 15/ 16   N/A
KENOSHA   LAKESH 2200   20     230/ 14/ 24 1026.1
$$

TC  - TEMPERATURE IN CELSIUS
VSB - VISIBILITY IN STATUTE MILES
WCI - WIND CHILL INDEX
HX  - HEAT INDEX




USA.gov is the U.S. government's official web portal to all federal, state and local government web resources and services.